SCP
0 0 0 0 0 0 0 0 0 0 0 0 1 1 0 0 0 0 0 0 1 0 0 1 1 1 0 0 0 0 0 0 0 0 0 0 0 0 0 0 0 0 0
0 0 0 0 0 0 0 0 0 0 0 0 0 0 0 0 0 0 0 1 1 0 0 0 0 0 0 0 0 0 0 0 0 0 0 0 0 0 0 0 0 0 0
1 0 0 0 0 0 0 1 1 1 0 0 0 0 0 0 0 0 0 0 0 0 0 0 0 0 0 0 0 0 0 0 0 0 0 0 0 0 0 0 0 0 0
1 0 0 0 0 0 1 1 1 1 0 0 0 0 0 0 0 0 0 0 0 0 0 0 0 0 0 0 0 0 0 0 0 0 0 0 0 0 0 0 0 0 0
0 0 0 0 0 0 0 1 1 1 0 0 0 0 0 0 0 0 0 0 0 0 0 0 0 0 0 0 0 0 0 0 0 0 0 0 0 0 0 0 0 0 0
0 0 0 0 0 0 0 0 0 0 0 0 0 0 0 0 0 0 0 0 0 0 0 0 0 0 0 0 0 0 0 0 0 0 0 0 0 0 0 0 0 0 0
0 0 0 0 0 0 0 0 0 0 0 0 0 0 0 0 0 0 0 0 0 0 0 0 0 0 0 0 0 0 0 0 0 0 0 0 0 0 0 0 0 0 0
0 0 0 0 0 0 0 0 0 0 0 0 0 0 0 0 0 0 0 0 0 0 0 0 0 0 0 0 0 0 0 0 0 0 0 0 0 0 0 0 0 0 0
0 0 0 0 0 0 0 0 0 0 0 0 0 0 0 0 0 0 0 0 0 0 0 0 0 0 0 0 0 0 0 0 0 0 0 0 0 0 0 0 0 0 0
1 0 0 0 0 0 0 0 0 0 0 0 0 0 0 0 0 0 0 0 0 0 0 0 0 0 0 0 0 0 0 0 0 0 0 0 0 0 0 0 0 0 0
1 1 0 0 0 0 0 1 1 0 0 0 0 0 0 0 0 0 0 0 0 0 0 0 0 0 0 0 0 0 0 0 0 0 0 0 0 0 0 0 0 0 0
1 1 1 0 0 0 0 1 1 1 1 1 1 0 0 0 0 0 0 0 0 0 0 0 0 0 0 0 0 0 0 0 0 0 0 0 0 0 0 0 0 0 0
1 1 1 0 0 1 1 1 1 1 2 2 1 1 1 1 0 0 0 0 0 0 0 0 0 0 0 0 0 0 0 0 0 0 0 0 0 0 0 0 0 0 0
1 1 1 1 1 1 1 1 1 2 3 3 3 3 2 1 0 0 0 0 0 0 0 0 0 0 0 0 0 0 0 0 0 0 0 0 0 0 0 0 0 0 0
2 1 1 1 1 1 1 1 2 2 3 4 4 3 2 1 0 0 0 0 0 0 0 0 0 0 0 0 0 0 0 0 0 0 0 0 0 0 0 0 0 0 0
2 2 1 1 2 2 2 2 2 2 2 3 3 3 2 1 1 0 0 0 0 0 0 0 0 0 0 0 0 0 0 0 0 0 0 0 0 0 0 0 0 1 1
2 2 2 2 2 2 2 2 2 1 1 1 2 2 2 1 1 1 0 0 1 1 1 1 1 0 0 0 0 0 0 0 0 0 0 0 0 1 1 1 1 1 1
2 2 2 2 2 2 2 2 1 1 1 1 1 1 1 1 1 1 1 1 1 1 1 1 1 1 1 1 0 0 0 0 0 0 0 0 0 1 1 1 1 1 1
2 2 2 2 2 2 2 2 1 1 1 1 1 1 1 1 1 1 1 1 1 1 1 1 1 1 1 1 1 1 1 1 1 0 0 0 0 1 1 1 1 1 1
3 3 3 2 2 2 2 2 1 1 1 1 1 1 1 1 1 1 1 1 1 1 1 1 1 1 1 1 1 1 1 1 1 1 1 1 1 1 1 1 1 1 1
3 3 3 3 3 3 3 2 2 1 1 1 1 1 1 1 1 1 1 1 1 1 1 1 1 1 1 1 1 1 1 1 1 1 1 1 1 1 1 1 1 1 1
3 3 3 4 4 3 3 2 2 1 1 1 1 1 1 1 1 1 1 1 1 1 1 1 1 1 1 1 1 1 1 1 1 1 1 1 1 1 1 1 1 1 1
4 3 3 4 4 4 3 2 2 1 1 1 1 1 1 1 1 1 1 1 1 1 1 1 1 1 1 1 1 1 1 1 1 1 1 1 1 1 1 1 1 1 1
4 4 3 3 3 4 3 2 2 1 1 1 1 1 1 1 1 1 1 1 1 1 1 1 1 1 1 1 1 1 1 1 1 1 1 1 1 1 1 1 1 1 1
3 3 3 3 3 3 3 2 2 2 2 2 1 1 1 1 1 1 1 1 1 1 1 1 1 1 2 1 1 1 1 1 1 1 1 1 1 1 1 1 1 1 1
2 2 3 3 3 2 2 2 2 2 2 2 2 2 1 1 1 1 1 1 1 1 1 1 2 2 2 2 1 1 1 1 1 1 1 1 1 1 1 1 1 1 1
Wind_Speed
8 10 11 9 10 10 11 11 11 12 12 12 12 12 12 12 12 11 11 12 12 12 11 11 12 11 11 11 11 11 12 11 11 12 12 13 13 13 13 12 10 11 13
11 12 11 10 10 10 11 11 11 11 11 12 12 12 11 11 11 11 11 11 12 12 11 11 11 11 11 11 10 11 11 11 11 12 12 12 12 12 11 9 7 10 13
12 12 12 10 10 11 11 11 11 11 11 11 11 11 11 11 11 11 11 11 11 11 11 11 11 10 10 10 10 10 10 10 10 11 10 9 11 11 10 10 11 12 12
11 11 11 12 10 10 10 11 11 11 11 11 11 11 10 10 10 10 10 11 11 10 10 10 10 10 10 10 10 10 10 10 9 9 7 8 10 12 10 10 11 11 12
11 11 13 11 10 10 10 10 10 10 10 10 10 10 10 10 10 10 9 10 10 10 10 10 10 10 10 10 10 10 10 9 8 6 7 7 8 11 10 10 11 11 11
11 11 14 10 10 10 10 10 10 9 9 9 9 9 9 9 9 9 9 10 10 9 10 10 10 10 10 10 10 10 10 8 7 6 6 7 8 10 10 10 11 11 10
11 11 14 10 10 10 9 9 9 9 9 8 8 8 8 9 9 9 9 10 9 9 9 9 9 9 9 9 9 9 8 5 4 6 6 7 9 10 10 10 10 10 10
10 11 13 11 9 9 9 8 8 8 8 7 8 8 8 8 8 8 9 9 9 9 9 9 8 9 9 8 8 8 6 4 6 6 6 8 10 9 9 9 9 10 10
9 10 10 11 11 10 8 8 8 8 7 7 8 8 8 8 8 8 8 9 9 9 9 9 9 9 8 8 8 7 5 2 3 5 6 7 10 8 9 9 9 9 10
7 9 8 7 8 9 10 9 8 7 7 7 8 8 8 9 8 8 8 8 8 9 9 9 9 8 7 8 8 7 5 5 4 6 5 8 9 8 8 8 8 8 9
7 7 7 8 7 6 7 10 8 8 7 7 8 8 7 6 7 7 9 8 8 8 9 8 8 7 7 9 8 7 6 3 4 3 5 10 8 8 8 8 8 8 8
10 8 6 6 6 6 5 6 4 5 6 4 5 6 4 4 4 6 9 7 7 8 8 8 7 7 6 7 9 8 3 3 3 4 7 9 7 8 8 7 7 8 8
10 8 8 7 5 5 4 3 2 2 3 4 5 4 3 4 4 5 4 6 6 7 6 7 7 4 3 3 2 3 3 2 2 3 8 8 6 7 8 8 7 7 8
9 8 8 7 6 4 3 3 3 2 3 3 5 4 4 2 2 3 2 3 3 3 3 3 2 3 3 3 2 2 3 1 1 2 7 8 6 6 7 8 8 8 8
8 8 8 7 6 4 3 2 3 2 2 4 3 3 3 3 3 3 2 2 2 3 4 3 3 3 3 3 2 3 2 1 1 2 5 8 6 6 7 8 8 8 8
9 8 8 8 7 6 4 3 2 2 2 2 3 4 3 3 3 3 4 3 2 2 2 2 3 3 3 2 3 3 2 3 2 2 3 7 8 7 7 7 8 9 9
9 8 8 8 8 7 6 5 3 3 3 2 3 4 4 4 4 3 3 3 2 2 3 3 3 3 3 3 3 3 2 2 2 2 2 3 6 9 8 7 7 9 9
9 9 8 7 8 7 6 5 3 3 2 2 2 3 4 3 4 3 3 3 2 3 3 3 3 3 2 3 2 2 2 2 3 3 3 3 3 4 8 9 8 8 9
9 9 8 8 8 7 6 4 4 3 3 3 3 3 4 5 4 4 3 2 3 3 3 3 3 3 2 2 3 3 3 3 3 4 3 3 3 3 4 8 9 8 9
9 9 9 9 8 7 6 4 4 4 3 3 3 3 4 4 5 4 4 3 4 3 3 2 2 3 2 3 3 1 3 3 3 3 4 4 4 5 4 4 6 8 10
10 10 10 10 9 7 5 5 4 4 4 4 4 5 5 5 5 4 4 3 4 3 3 4 3 4 4 3 3 3 3 4 3 3 4 3 4 4 4 4 4 3 6
11 11 11 11 10 9 6 4 3 3 3 3 3 3 5 5 5 5 4 4 4 3 4 4 4 4 3 3 4 4 3 3 4 3 3 3 3 3 4 5 4 4 4
11 11 10 10 10 9 8 5 4 3 3 4 5 4 5 5 5 5 4 5 4 5 4 4 5 6 4 4 4 4 3 2 1 2 2 2 2 2 3 2 4 4 4
11 10 10 10 10 9 9 7 7 5 5 4 4 3 4 5 5 5 5 5 5 5 4 6 5 4 5 5 4 4 5 3 3 2 2 3 3 3 3 3 3 3 3
10 9 9 10 10 10 9 8 8 7 5 4 4 4 4 4 5 5 5 5 5 5 4 5 3 5 5 5 5 4 4 4 6 4 3 2 2 2 2 2 2 2 2
9 9 9 10 9 9 10 9 9 7 6 5 5 4 4 3 3 4 4 4 4 4 4 4 5 6 5 5 5 4 4 4 4 4 4 4 3 2 1 1 1 1 1
Wind_Direction
128 119 117 117 113 109 107 109 112 113 115 115 115 114 112 110 110 108 108 108 108 109 110 111 112 112 112 113 113 114 115 115 116 117 118 119 120 122 123 127 134 115 114
125 120 120 119 115 109 106 107 111 112 114 115 117 117 116 114 113 112 111 109 108 108 108 111 114 115 114 113 116 118 118 119 119 119 122 123 122 122 126 127 110 111 124
126 124 129 120 117 113 109 108 110 110 111 114 117 118 116 114 113 112 112 110 109 109 111 113 116 116 114 115 118 119 119 120 123 128 140 133 124 123 123 117 112 121 124
128 127 121 120 120 117 115 112 112 110 109 110 112 116 116 114 112 111 111 113 113 114 113 114 117 115 116 116 117 119 121 125 131 152 150 126 125 122 127 126 124 126 125
123 121 116 126 123 120 117 113 112 112 111 110 110 113 116 116 115 113 112 112 115 116 116 116 116 116 114 113 115 119 123 129 148 168 117 115 114 126 132 131 128 128 127
130 131 120 129 126 122 118 116 114 114 113 112 112 114 115 116 116 114 112 111 113 115 119 118 118 118 115 113 114 120 125 141 174 126 116 120 117 128 131 130 130 129 130
131 125 123 128 127 125 122 120 120 117 115 115 116 116 116 117 116 114 112 111 113 114 117 118 117 119 118 116 117 121 126 155 138 119 120 115 110 125 131 132 134 135 135
131 127 123 129 129 128 126 126 124 120 118 119 119 116 115 116 116 116 113 111 111 113 116 120 120 118 117 117 120 122 132 193 138 120 119 110 108 126 131 132 133 136 134
134 131 135 143 142 139 131 127 124 122 122 120 119 114 113 116 118 117 115 115 116 118 120 119 117 116 117 121 126 130 140 238 136 121 118 108 118 131 134 138 138 140 138
137 134 137 141 136 149 142 135 128 124 123 123 123 126 126 126 126 129 132 118 119 121 122 120 117 115 118 124 130 135 154 217 134 130 114 113 131 140 139 143 145 144 144
150 149 147 141 146 150 137 135 146 143 137 145 136 136 157 148 134 142 106 117 124 124 123 123 121 121 132 133 136 150 189 185 118 107 101 113 140 147 146 145 147 147 148
160 159 150 153 155 149 132 135 148 153 142 151 129 140 141 121 117 110 115 124 125 128 132 129 137 163 188 149 151 183 181 141 131 123 108 127 146 151 152 154 154 153 154
159 159 162 159 158 145 140 143 138 137 135 139 129 131 128 138 137 132 140 143 144 156 150 148 175 168 142 117 153 153 122 142 127 122 116 139 157 163 163 166 165 165 165
162 165 164 156 161 158 147 143 157 160 158 147 142 161 149 142 139 127 140 141 153 147 136 154 141 131 137 151 156 127 138 167 116 104 118 142 162 175 174 174 177 178 179
172 170 169 168 161 162 170 197 170 173 180 152 149 155 168 159 146 142 137 154 159 139 157 165 148 140 160 166 162 146 141 124 135 141 126 147 165 180 183 183 185 190 190
179 175 173 178 172 176 185 194 191 184 188 183 168 159 179 160 151 163 161 170 161 166 146 158 151 160 176 156 164 154 180 165 154 181 155 155 172 185 190 191 193 194 197
180 179 179 183 181 186 193 196 194 199 189 189 165 168 185 177 162 182 165 184 172 167 166 191 172 178 181 177 176 177 190 191 174 193 191 181 170 179 189 197 201 201 203
184 183 188 192 183 188 196 202 200 201 192 196 190 179 187 181 186 202 186 183 178 199 195 183 210 201 194 192 186 199 188 183 199 207 209 203 198 181 179 190 203 207 211
190 188 190 196 191 193 193 207 212 195 205 212 203 199 190 200 197 212 207 167 202 208 212 220 182 219 200 203 207 203 215 205 204 213 214 217 205 217 192 170 193 207 215
190 190 190 194 190 189 191 199 210 202 197 214 215 207 205 205 203 217 209 203 221 212 218 226 217 229 232 223 240 212 235 222 219 217 223 210 201 211 217 197 191 195 207
190 191 192 193 184 188 192 202 202 200 197 204 212 202 209 214 205 222 239 203 228 219 228 224 224 220 225 222 241 231 225 225 217 214 227 229 208 209 215 216 228 220 197
191 193 191 190 189 195 191 200 209 211 211 205 221 207 217 213 218 217 226 231 222 223 224 229 225 246 243 219 243 250 237 211 203 210 213 217 229 218 218 216 216 219 244
191 193 192 189 189 196 192 195 194 196 216 211 212 207 216 216 220 237 228 240 235 234 223 227 231 232 241 236 239 256 263 249 227 187 204 217 226 237 238 229 222 221 232
191 188 186 186 189 191 191 202 206 212 219 216 220 213 214 221 226 226 232 235 241 248 237 236 228 238 242 243 229 241 263 290 270 235 214 197 202 227 244 244 234 225 233
185 183 182 184 188 190 196 203 213 222 224 218 214 209 225 220 226 226 226 232 234 245 245 257 255 247 241 245 242 232 236 237 245 251 248 240 225 229 221 235 253 254 234
180 180 179 180 187 189 196 205 214 220 219 220 221 219 222 216 220 222 227 233 238 246 240 241 244 239 246 248 252 245 241 242 240 245 249 246 243 241 216 247 260 270 264